Вернуться в каталог

FREGAT DEB

TANK

АктивенUNKNOWN
NORAD 37347·DEBRIS·🇷🇺 Russia

Запущен Jan 20, 2011 с Baikonur Cosmodrome

Loading…

Ближайшие Пролёты (ближайшие 24 часа)

TLE

СвежийSource: Space-Track

Эпоха: Sep 14, 2026, 14:04 UTC

1 37347U 11001D   26257.58635711  .00019916  53452-5  51884-3 0  9994
2 37347  50.3058 207.7457 1179839 271.1491  75.4764 13.21344684667741

Отслеживайте FREGAT DEB в реальном времени с AllMySat

Download on the App Store